{"data":{"norad_id":57617,"intl_designator":"2023-119R","name":"STARLINK-30148","alt_names":[],"object_type":"PAYLOAD","status":"ACTIVE","operator":null,"country":"US","launch_date":"2023-08-11","launch_site_code":"AFETR","launch_vehicle":null,"mission":null,"orbit_class":"UNKNOWN","rcs_meters":null,"size_class":null,"mass_kg":null,"dimensions":null,"purposes":["comms"],"wikipedia_slug":null,"has_3d_model":false,"image_url":null,"decayed_at":null,"tle_current":{"epoch":"2026-05-25T00:27:59.984064Z","epoch_age_seconds":70421,"freshness":"FRESH","line1":"1 57617U 23119R   26145.01944426  .00000538  00000+0  29102-4 0  9993","line2":"2 57617  43.0061  10.2074 0001497 268.4922  91.5758 15.27571001154767","mean_motion":15.27571001,"eccentricity":0.0001497,"inclination_deg":43.0061,"raan_deg":10.2074,"arg_perigee_deg":268.4922,"mean_anomaly_deg":91.5758,"bstar":2.9102e-5,"rev_number":15476,"period_min":94.267304043958,"perigee_km":482.04891882286,"apogee_km":484.10316600776,"semimajor_km":6861.2130424153,"source":"CELESTRAK","updated_at":"2026-05-25T13:38:18.359546Z"}}}